Weather History for KMWT - January, 2013

Change the Weather History Date:

Thursday, January 3, 2013

  Actual Average (KHOT) Record (KHOT)
Temperature  
Mean Temperature 34 °F -  
Max Temperature 46 °F 47 °F 78 °F (2009)
Min Temperature 23 °F 30 °F 12 °F (1979)
Degree Days  
Heating Degree Days 30    
Moisture  
Dew Point 25 °F    
Average Humidity 78    
Maximum Humidity 96    
Minimum Humidity 44    
Precipitation  
Precipitation 0.00 in - - ()
Sea Level Pressure  
Sea Level Pressure 30.40 in    
Wind  
Wind Speed 1 mph (NNW)    
Max Wind Speed 7 mph    
Max Gust Speed -    
Visibility 8 miles    
Events      
Averages and records for this station are not official NWS values.
T = Trace of Precipitation, MM = Missing Value Source: NWS Daily Summary

Daily Weather History Graph

Daily Weather History Graph

Search for Another Location

Airport or City:

Trip Planner

Search our weather history database for the weather conditions in past years. The results will help you decide how hot, cold, wet, or windy it might be!

Date:

Astronomy

Jan. 03, 2013 Rise Set
Actual Time 7:21 AM CST 5:16 PM CST
Civil Twilight 6:53 AM CST 5:44 PM CST
Nautical Twilight 6:22 AM CST 6:15 PM CST
Astronomical Twilight 5:51 AM CST 6:46 PM CST
Moon 11:34 PM CST (1/3) 10:49 AM CST (1/3)
Length of Visible Light 10h 50m
Length of Day
9h 55m
Waning Gibbous, 65% of the Moon is Illuminated
Jan 3
Waning Gibbous
Jan 4
Last Quarter
Jan 11
New
Jan 18
First Quarter
Jan 26
Full

Hourly Weather History & Observations

Time (CST) Temp. Windchill Dew Point Humidity Pressure Visibility Wind Dir Wind Speed Gust Speed Precip Events Conditions
12:53 AM 27.0 °F - 26.1 °F 96% 30.30 in 4.0 mi Calm Calm - N/A   Clear
1:53 AM 26.1 °F - 25.0 °F 96% 30.30 in 4.0 mi Calm Calm - N/A   Clear
2:53 AM 25.0 °F - 24.1 °F 96% 30.32 in 5.0 mi Calm Calm - N/A   Clear
3:53 AM 24.1 °F - 21.9 °F 91% 30.32 in 5.0 mi Calm Calm - N/A   Clear
4:53 AM 23.0 °F - 21.0 °F 92% 30.34 in 6.0 mi Calm Calm - N/A   Clear
5:53 AM 23.0 °F - 21.0 °F 92% 30.36 in 6.0 mi Calm Calm - N/A   Clear
6:53 AM 23.0 °F - 19.9 °F 88% 30.38 in 6.0 mi Calm Calm - N/A   Clear
7:53 AM 23.0 °F - 21.0 °F 92% 30.40 in 5.0 mi Calm Calm - N/A   Clear
8:53 AM 28.9 °F 25.2 °F 27.0 °F 92% 30.43 in 5.0 mi WNW 3.5 mph - N/A   Clear
9:53 AM 34.0 °F 31.0 °F 30.0 °F 85% 30.45 in 8.0 mi Variable 3.5 mph - N/A   Clear
10:53 AM 39.9 °F 36.7 °F 28.0 °F 63% 30.45 in 10.0 mi Variable 4.6 mph - N/A   Clear
11:53 AM 41.0 °F - 26.1 °F 55% 30.43 in 10.0 mi Calm Calm - N/A   Clear
12:53 PM 43.0 °F 39.5 °F 26.1 °F 51% 30.39 in 10.0 mi Variable 5.8 mph - N/A   Clear
1:53 PM 44.1 °F 41.5 °F 25.0 °F 47% 30.38 in 10.0 mi Variable 4.6 mph - N/A   Clear
2:53 PM 46.0 °F 43.1 °F 25.0 °F 44% 30.38 in 10.0 mi North 5.8 mph - N/A   Clear
3:53 PM 46.0 °F 42.5 °F 25.0 °F 44% 30.39 in 10.0 mi NNW 6.9 mph - N/A   Clear
4:53 PM 42.1 °F 40.2 °F 24.1 °F 49% 30.40 in 10.0 mi North 3.5 mph - N/A   Clear
5:53 PM 37.0 °F - 26.1 °F 65% 30.43 in 10.0 mi Calm Calm - N/A   Clear
6:53 PM 33.1 °F - 27.0 °F 78% 30.44 in 10.0 mi Calm Calm - N/A   Clear
7:53 PM 32.0 °F - 28.0 °F 85% 30.44 in 10.0 mi Calm Calm - N/A   Clear
8:53 PM 28.9 °F - 27.0 °F 92% 30.45 in 10.0 mi Calm Calm - N/A   Clear
9:53 PM 27.0 °F - 26.1 °F 96% 30.45 in 10.0 mi Calm Calm - N/A   Clear
10:53 PM 27.0 °F - 25.0 °F 92% 30.44 in 10.0 mi Calm Calm - N/A   Clear
11:53 PM 27.0 °F - 25.0 °F 92% 30.45 in 10.0 mi Calm Calm - N/A   Clear